K9APR Weather Reports


time (UTC)temp
C
wind
direction
speed
KPH
gust
KPH
rain 1hr
cm
rain 24hr
cm
rain mn
cm
humidity
%
barometer
mb
20260503190503 14 221 11.3 12.9 0.00 0.00 0.00 40 1016.8
20260503185604 15 249 9.7 16.1 0.00 0.00 0.00 40 1017.0
20260503184705 15 222 9.7 12.9 0.00 0.00 0.00 41 1017.2
20260503183804 15 256 11.3 22.5 0.00 0.00 0.00 40 1017.3
20260503182903 15 212 12.9 27.4 0.00 0.00 0.00 42 1017.5
20260503182003 15 216 16.1 20.9 0.00 0.00 0.00 40 1017.6
20260503181104 15 250 16.1 19.3 0.00 0.00 0.00 41 1017.7
20260503180203 15 199 11.3 19.3 0.00 0.00 0.00 43 1017.7
20260503175305 15 231 11.3 12.9 0.00 0.00 0.00 43 1017.8
20260503174404 14 262 9.7 19.3 0.00 0.00 0.00 41 1018.0
20260503173503 14 234 11.3 24.1 0.00 0.00 0.00 44 1018.1
20260503172603 14 194 14.5 22.5 0.00 0.00 0.00 43 1018.1
20260503171704 13 210 12.9 25.7 0.00 0.00 0.00 42 1018.3
20260503170804 14 215 19.3 27.4 0.00 0.00 0.00 40 1018.4
20260503150203 12 242 9.7 25.7 0.00 0.00 0.00 53 1019.9
20260503131403 7 250 3.2 8.0 0.00 0.00 0.00 67 1020.0
20260503130504 7 243 3.2 9.7 0.00 0.00 0.00 70 1020.2
20260503120204 2 246 1.6 3.2 0.00 0.00 0.00 81 1020.3
20260503080804 1 202 0.0 0.0 0.00 0.00 0.00 85 1019.2
20260503072305 1 247 0.0 0.0 0.00 0.00 0.00 83 1019.2
20260503071402 1 247 0.0 0.0 0.00 0.00 0.00 84 1019.4
20260503070504 1 300 0.0 0.0 0.00 0.00 0.00 85 1019.4
20260503060205 1 302 0.0 1.6 0.00 0.00 0.00 86 1019.9
20260503054402 1 302 0.0 1.6 0.00 0.00 0.00 85 1019.9
20260503053504 1 302 0.0 0.0 0.00 0.00 0.00 85 1019.9
20260503052604 1 302 0.0 1.6 0.00 0.00 0.00 84 1020.0
20260503051702 1 302 0.0 1.6 0.00 0.00 0.00 84 1019.9
20260503050804 1 302 0.0 0.0 0.00 0.00 0.00 84 1019.9
20260503045904 1 302 0.0 0.0 0.00 0.00 0.00 84 1019.9
20260503045002 1 302 0.0 0.0 0.00 0.00 0.00 83 1019.8
20260503044103 2 302 0.0 0.0 0.00 0.00 0.00 82 1019.7
20260503043204 2 302 0.0 0.0 0.00 0.00 0.00 81 1019.7
20260503042305 2 302 0.0 0.0 0.00 0.00 0.00 79 1019.7
20260503041404 2 302 0.0 0.0 0.00 0.00 0.00 77 1019.5
20260503040504 2 302 0.0 0.0 0.00 0.00 0.00 76 1019.6
20260503035602 2 302 0.0 0.0 0.00 0.00 0.00 77 1019.7
20260503034702 2 302 0.0 0.0 0.00 0.00 0.00 77 1019.8
20260503033803 2 302 0.0 0.0 0.00 0.00 0.00 78 1019.8
20260503032905 2 302 0.0 0.0 0.00 0.00 0.00 79 1019.8
20260503032003 2 302 0.0 0.0 0.00 0.00 0.00 78 1019.8
20260503031103 2 302 0.0 0.0 0.00 0.00 0.00 77 1019.9
20260503030203 2 302 0.0 0.0 0.00 0.00 0.00 78 1019.8
20260503025305 2 302 0.0 0.0 0.00 0.00 0.00 76 1019.8
20260503024402 3 302 0.0 0.0 0.00 0.00 0.00 76 1019.8
20260503023503 3 302 0.0 0.0 0.00 0.00 0.00 76 1019.8
20260503022604 3 302 0.0 0.0 0.00 0.00 0.00 75 1019.7
20260503021704 3 302 0.0 0.0 0.00 0.00 0.00 74 1019.7
20260503020803 3 302 0.0 0.0 0.00 0.00 0.00 74 1019.7
20260503015904 4 302 0.0 0.0 0.00 0.00 0.00 73 1019.7
20260503015002 4 302 0.0 0.0 0.00 0.00 0.00 68 1019.5
20260503014104 5 302 0.0 0.0 0.00 0.00 0.00 71 1019.4
20260503013202 5 302 0.0 1.6 0.00 0.00 0.00 67 1019.5
20260503012305 5 302 0.0 0.0 0.00 0.00 0.00 67 1019.3
20260503011403 5 302 0.0 0.0 0.00 0.00 0.00 69 1019.3
20260503010502 6 302 0.0 0.0 0.00 0.00 0.00 61 1019.3
20260503005602 6 302 0.0 0.0 0.00 0.00 0.00 60 1019.2
20260503004702 7 302 0.0 0.0 0.00 0.00 0.00 54 1019.2
20260503003803 7 302 0.0 0.0 0.00 0.00 0.00 52 1019.2
20260503002903 8 302 0.0 0.0 0.00 0.00 0.00 51 1019.1
20260503002005 9 302 0.0 0.0 0.00 0.00 0.00 51 1019.0
20260503001104 9 302 0.0 0.0 0.00 0.00 0.00 51 1019.0
20260503000204 9 308 1.6 1.6 0.00 0.00 0.00 49 1019.0
20260502235305 8 290 3.2 4.8 0.00 0.00 0.00 48 1019.0
20260502234402 9 326 1.6 1.6 0.00 0.00 0.00 48 1019.0
20260502233503 8 302 1.6 3.2 0.00 0.00 0.00 47 1019.1
20260502232604 9 309 1.6 0.0 0.00 0.00 0.00 50 1019.1
20260502231703 9 301 4.8 4.8 0.00 0.00 0.00 48 1019.1
20260502230803 9 300 3.2 4.8 0.00 0.00 0.00 49 1019.1
20260502225902 8 308 1.6 4.8 0.00 0.00 0.00 52 1019.1
20260502225003 8 300 3.2 4.8 0.00 0.00 0.00 50 1019.2
20260502223202 9 304 3.2 4.8 0.00 0.00 0.00 50 1019.0
20260502222305 8 300 1.6 3.2 0.00 0.00 0.00 53 1019.2
20260502221402 9 300 1.6 4.8 0.00 0.00 0.00 51 1019.2
20260502220502 9 315 8.0 8.0 0.00 0.00 0.00 47 1019.1
20260502215605 8 298 8.0 9.7 0.00 0.00 0.00 50 1019.0
20260502214703 9 306 8.0 11.3 0.00 0.00 0.00 51 1019.0
20260502213802 9 311 4.8 4.8 0.00 0.00 0.00 50 1019.0
20260502212902 9 305 4.8 11.3 0.00 0.00 0.00 51 1018.9
20260502212004 10 347 4.8 9.7 0.00 0.00 0.00 52 1018.8
20260502211104 8 311 3.2 4.8 0.00 0.00 0.00 50 1018.8
20260502210204 8 309 4.8 9.7 0.00 0.00 0.00 50 1018.9
20260502205305 9 313 3.2 4.8 0.00 0.00 0.00 51 1018.9
20260502204403 9 304 8.0 9.7 0.00 0.00 0.00 50 1018.8
20260502203503 9 307 11.3 14.5 0.00 0.00 0.00 48 1018.8
20260502202603 10 306 8.0 9.7 0.00 0.00 0.00 50 1018.7
20260502201704 10 308 9.7 9.7 0.00 0.00 0.00 48 1018.8
20260502200802 10 326 8.0 14.5 0.00 0.00 0.00 49 1018.7
20260502195902 10 303 12.9 16.1 0.00 0.00 0.00 47 1018.8
20260502195003 10 298 4.8 9.7 0.00 0.00 0.00 52 1018.9
20260502194103 10 342 3.2 4.8 0.00 0.00 0.00 51 1018.9
20260502193203 9 305 8.0 11.3 0.00 0.00 0.00 52 1019.0
20260502192305 9 306 8.0 14.5 0.00 0.00 0.00 49 1019.0
20260502191403 10 323 3.2 8.0 0.00 0.00 0.00 48 1019.0